Overview Statistics Trail Chart Weather Telemetry Raw packets
 

This is the latest recevied weather packets stored in our database for station/object KB7STN. If no packets are shown the sender has not sent any weather packets the latest 10 day(s).

<< 45 46 47 48 49 50 51 >>
Time Temp. Humidity Pressure Rain* Wind** Luminosity Snow
1788384619 27.22° C 20% 1016 hPa 0 mm - - -
1788384319 27.78° C 19% 1016.1 hPa 0 mm - - -
1788384020 27.78° C 20% 1015.9 hPa 0 mm - - -
1788383719 27.22° C 18% 1016 hPa 0 mm - - -
1788383419 27.22° C 19% 1016 hPa 0 mm - - -
1788383120 27.22° C 20% 1016 hPa 0 mm - - -
1788382819 27.22° C 18% 1016.1 hPa 0 mm - - -
1788382519 27.22° C 18% 1016.3 hPa 0 mm - - -
1788382219 27.22° C 22% 1016.2 hPa 0 mm - - -
1788381919 26.67° C 22% 1016.1 hPa 0 mm - - -
1788381619 26.67° C 21% 1016.1 hPa 0 mm - - -
1788381319 26.67° C 22% 1016.1 hPa 0 mm - - -
1788381019 26.67° C 21% 1016.2 hPa 0 mm - - -
1788380719 26.67° C 24% 1016.4 hPa 0 mm - - -
1788380419 26.67° C 26% 1016.2 hPa 0 mm - - -
1788380119 26.67° C 25% 1016.5 hPa 0 mm - - -
1788379820 26.67° C 25% 1016.1 hPa 0 mm - - -
1788379520 26.67° C 26% 1016.2 hPa 0 mm - - -
1788379220 26.67° C 25% 1016.5 hPa 0 mm - - -
1788378920 26.67° C 26% 1016.3 hPa 0 mm - - -
1788378620 26.67° C 25% 1016.5 hPa 0 mm - - -
1788378320 26.67° C 25% 1016.4 hPa 0 mm - - -
1788378020 26.67° C 27% 1016.5 hPa 0 mm - - -
1788377720 26.67° C 27% 1016.4 hPa 0 mm - - -
1788377435 26.67° C 27% 1016.6 hPa 0 mm - - -

* Rain latest hour (hover to see other rain measurements)
** Current wind speed in m/s (hover to see current wind gust speed)